#timestamp,LO_Frequency,Hit,StdDev 
1513184415.6,286047001.8,N
1513184435.5,286047003.7,N
1513184455.3,286047003.2,N
1513184475.1,286047003.0,N
1513184495.9,286047007.6,Y
1513184515.7,286047003.2,P
1513184535.6,286047003.5,P
1513184555.4,286047004.3,P
1513184575.2,286047000.6,N
1513184595.1,286046999.0,N
1513184596.0,286046999.0,N
1513184615.8,286046998.8,N
1513184635.7,286046997.5,N
1513184655.5,286046997.7,N
1513184675.3,286046997.5,N
1513184695.2,286046997.9,N
1513184715.0,286046995.6,N
1513184715.9,286046995.6,N
1513184735.8,286046996.7,N
1513184755.6,286046998.5,N
1513184775.4,286046998.1,N
1513184795.3,286046996.5,N
1513184815.1,286046996.9,N
1513184835.8,286046998.6,N
1513184855.7,286047000.0,N
1513184875.5,286047011.9,Y
1513184895.4,286047001.6,P
1513184915.2,286047002.8,N
1513184935.0,286046998.1,N
1513184935.9,286046998.1,N
1513184955.8,286047001.1,N
1513184975.6,286047002.3,N
1513184995.5,286047002.0,N
1513185015.3,286047004.0,N
1513185035.1,286047001.5,N
1513185055.9,286047002.8,N
1513185075.7,286046996.7,N
1513185095.6,286046997.5,N
1513185115.4,286047001.1,N
1513185135.2,286046999.9,N
1513185155.1,286046999.3,N
1513185156.0,286046999.3,N
1513185175.8,286046997.0,N
1513185195.6,286046993.4,Y
1513185215.5,286046997.5,P
1513185235.3,286046996.0,N
1513185255.2,286046996.4,N
1513185275.9,286046995.1,N
1513185295.7,286046997.6,N
1513185315.6,286046998.0,N
1513185335.4,286046999.5,N
1513185355.3,286046996.6,N
1513185375.1,286046999.5,N
1513185376.0,286046999.5,N
1513185395.8,286046998.9,N
1513185415.7,286046998.3,N
1513185435.5,286046998.9,N
1513185455.3,286046999.9,N
1513185475.2,286047002.5,N
1513185495.0,286047004.3,N
1513185495.9,286047004.3,N
1513185515.8,286047003.8,N
1513185535.6,286047001.3,N
1513185555.4,286047004.1,N
1513185575.3,286047003.4,N
1513185595.1,286047003.9,N
1513185615.9,286047000.7,N
1513185635.7,286046995.5,N
1513185655.5,286046997.0,N
1513185675.4,286047000.6,N
1513185695.2,286047000.9,N
1513185715.0,286046996.5,N
1513185715.9,286046996.5,N
1513185735.8,286046998.3,N
1513185755.6,286046998.6,N
1513185775.5,286047000.5,N
1513185795.3,286047002.2,N
1513185815.1,286047001.8,N
1513185835.9,286047001.6,N
1513185855.7,286046999.7,N
1513185875.5,286047002.2,N
1513185895.4,286047003.0,N
1513185915.2,286047005.7,N
1513185935.1,286047001.6,N
1513185936.0,286047001.6,N
1513185955.8,286047001.8,N
1513185975.6,286047004.3,N
1513185995.5,286047001.5,N
1513186015.3,286047003.9,N
1513186035.2,286047003.4,N
1513186055.9,286047004.4,N
1513186075.7,286047003.9,N
1513186095.6,286047001.5,N
1513186115.4,286047002.1,N
1513186135.2,286047004.2,N
1513186155.1,286047004.8,N
1513186156.0,286047004.8,N
1513186175.8,286047005.6,N
1513186195.7,286047003.0,N
1513186215.5,286047004.9,N
1513186235.3,286047007.6,Y
1513186255.2,286047002.2,P
1513186275.0,286047000.3,P
1513186275.9,286047000.3,N
1513186295.8,286047001.0,N
1513186315.6,286047002.5,N
1513186335.4,286047004.0,Y
1513186355.3,286047003.5,P
1513186375.1,286047003.4,P
1513186395.9,286047004.4,P
1513186415.7,286047001.0,N
1513186435.5,286047001.0,N
1513186455.4,286047000.8,N
1513186475.2,286046996.5,N
1513186495.0,286046997.9,N
1513186495.9,286046997.9,N
1513186515.8,286046997.2,N
1513186535.6,286046995.5,N
1513186555.5,286046998.0,N
1513186575.3,286046997.1,N
1513186595.1,286046998.6,N
1513186615.9,286047000.0,N
1513186635.7,286046999.3,N
1513186655.6,286046998.6,N
1513186675.4,286046998.5,N
1513186695.2,286047000.8,N
1513186715.1,286047001.1,N
1513186716.0,286047001.1,N
1513186735.8,286047000.7,N
1513186755.6,286047000.9,N
1513186775.5,286047002.5,N
1513186795.3,286047001.4,N
1513186815.2,286047005.9,N
1513186835.9,286047005.8,N
1513186855.7,286047004.2,N
1513186875.6,286047003.8,N
1513186895.4,286047003.9,N
1513186915.3,286047003.5,N
1513186935.1,286047004.5,N
1513186936.0,286047004.5,N
1513186955.8,286047001.7,N
1513186975.7,286047001.9,N
1513186995.5,286047001.6,N
1513187015.3,286046999.7,N
1513187035.2,286047006.0,N
1513187055.0,286047001.3,N
1513187055.9,286047001.3,N
1513187075.8,286047001.4,N
1513187095.6,286047002.0,N
1513187115.4,286047001.4,N
1513187135.3,286047000.2,N
1513187155.1,286047002.7,N
1513187175.9,286047000.5,N
1513187195.7,286046998.6,N
1513187215.5,286047000.9,N
1513187235.4,286047002.6,N
1513187255.2,286047004.4,N
1513187275.1,286047005.3,N
1513187276.0,286047005.3,N
1513187295.8,286047004.3,N
1513187315.6,286047001.8,N
1513187335.5,286047000.9,N
1513187355.3,286047000.2,N
1513187375.2,286047001.4,N
1513187395.9,286047001.8,N
1513187415.7,286047000.3,N
1513187435.6,286047002.4,N
1513187455.4,286047001.7,N
1513187475.2,286047001.7,N
1513187495.1,286047003.9,N
1513187496.0,286047003.9,N
1513187515.8,286047002.1,N
1513187535.7,286047002.1,N
1513187555.5,286047002.7,N
1513187575.3,286047000.6,N
1513187595.2,286046998.4,N
1513187615.0,286047000.7,N
1513187615.9,286047000.7,N
1513187635.8,286047000.0,N
1513187655.6,286046998.2,N
1513187675.4,286047001.0,N
1513187695.3,286047000.2,N
1513187715.1,286047002.6,N
1513187735.9,286047004.4,N
1513187755.7,286047004.1,N
1513187775.5,286047003.3,N
1513187795.4,286047003.5,N
1513187815.2,286047002.8,N
1513187835.0,286046998.9,N
1513187835.9,286046998.9,N
1513187855.8,286046999.8,N
1513187875.6,286047001.9,N
1513187895.5,286047004.2,N
1513187915.3,286047003.4,N
1513187935.1,286047003.3,N
1513187955.9,286047003.5,N
1513187975.7,286047005.4,N
1513187995.6,286047005.7,N
